Voltar ao catálogo

STARLINK-11522

AtivoComunicaçõesVLEO
NORAD 63141·PAYLOAD·🇺🇸 United States

Lançado Mar 3, 2025 de Cape Canaveral Space Force Station

Loading…

Próximas Passagens (próximas 24 horas)

TLE

AtualizadoSource: CelesTrak SupGP

Época: Sep 15, 2026, 03:18 UTC

1 63141C 25043K   26258.13798611 -.00031927  00000+0 -24800-3 0  2586
2 63141  43.0004 188.5897 0001456 269.0201 305.6584 15.70851673    15

Acompanhe STARLINK-11522 em tempo real com AllMySat

Download on the App Store